Flag for Germany Weather past 2 weeks in Geesthacht, Schleswig-Holstein, Germany

Now
64 °F

Broken clouds.


Feels Like: 64 °F
Forecast: 50 / 62 °F
Wind: 14 mph from Southwest

Location: Hamburg-Fuhlsbuettel

Current Time: Aug 22, 2014 at 4:20:17 PM

Latest Report: Aug 22, 2014 at 3:50 PM


Visibility: N/A

Pressure: 29.77 "Hg

Humidity: 56%

Dew point: 48 °F

Location of GeesthachtLocation

Historic Weather in Geesthacht — Graph

°F

Geesthacht temperature yesterday

Maximum temperature yesterday: 64 °F (at 3:50 PM)
Minimum temperature yesterday: 46 °F (at 4:20 AM)
Average temperature yesterday: 56 °F

Past Weeks' High & Low Weather Summary

 TemperatureHumidityPressure
High79 °F (Aug 8, 3:20 PM)100% (Aug 7, 11:20 PM)29.98 "Hg (Aug 7, 11:20 PM)
Low46 °F (Aug 21, 4:20 AM)34% (Aug 8, 3:50 PM)29.47 "Hg (Aug 18, 10:20 AM)
Average61 °F76%29.78 "Hg
* Reported Aug 7 3:20 PM — Aug 22 3:20 PM, Geesthacht, Weather by CustomWeather, © 2014

Note: Actual official high and low records may vary slightly from our data, if they occured in-between our weather recording intervals... More about our weather records

Advertising

Geesthacht weather history for previous 24 hours

 ConditionsComfort  
Time TempWeatherWind HumidityBarometerVisibility
3:20 PM
Aug 22
64 °FBroken clouds.18 mph56%29.77 "HgN/A
2:50 PM64 °FBroken clouds.16 mph52%29.80 "HgN/A
2:20 PM64 °FPartly sunny.16 mph56%29.80 "HgN/A
1:50 PM64 °FPartly sunny.16 mph56%29.80 "HgN/A
1:20 PM64 °FPartly sunny.21 mph52%29.80 "HgN/A
12:50 PM63 °FScattered clouds.20 mph59%29.80 "HgN/A
12:20 PM66 °FScattered clouds.21 mph60%29.80 "HgN/A
11:50 AM63 °FScattered clouds.22 mph64%29.80 "HgN/A
11:20 AM63 °FScattered clouds.18 mph64%29.80 "HgN/A
10:50 AM63 °FScattered clouds.17 mph68%29.83 "HgN/A
10:20 AM61 °FScattered clouds.20 mph68%29.83 "HgN/A
9:50 AM59 °FBroken clouds.16 mph72%29.83 "HgN/A
9:20 AM59 °FSunny.17 mph72%29.83 "Hg10 mi
8:50 AM57 °FSunny.17 mph77%29.83 "Hg10 mi
8:20 AM57 °FSunny.15 mph77%29.83 "Hg10 mi
7:50 AM55 °FSunny.14 mph82%29.83 "Hg10 mi
7:20 AM55 °FSunny.13 mph77%29.83 "Hg10 mi
6:50 AM55 °FClear.12 mph82%29.83 "Hg10 mi
6:20 AM54 °FPartly cloudy.10 mph82%29.83 "HgN/A
5:50 AM54 °FPartly cloudy.12 mph82%29.83 "HgN/A
5:20 AM55 °FPassing clouds.7 mph82%29.86 "HgN/A
4:20 AM55 °FPassing clouds.8 mph82%29.86 "HgN/A
3:50 AM54 °FPassing clouds.7 mph88%29.86 "HgN/A
3:20 AM55 °FPassing clouds.8 mph82%29.86 "HgN/A
2:50 AM54 °FPassing clouds.7 mph88%29.89 "HgN/A
2:20 AM55 °FClear.6 mph82%29.89 "Hg10 mi
1:50 AM52 °FClear.6 mph94%29.89 "Hg10 mi
1:20 AM54 °FClear.6 mph88%29.89 "Hg10 mi
12:50 AM54 °FClear.7 mph88%29.92 "Hg10 mi
12:20 AM54 °FClear.5 mph88%29.92 "Hg10 mi
11:50 PM
Aug 21
55 °FClear.5 mph88%29.92 "Hg10 mi
11:20 PM55 °FClear.5 mph88%29.92 "Hg10 mi
10:50 PM55 °FPassing clouds.2 mph88%29.92 "HgN/A
10:20 PM55 °FLight rain. Passing clouds.8 mph82%29.95 "HgN/A
9:50 PM57 °FLight rain. Clear.3 mph72%29.92 "HgN/A
9:20 PM57 °FBroken clouds.6 mph72%29.92 "HgN/A
8:50 PM61 °FLight rain. Broken clouds.6 mph59%29.92 "HgN/A
8:20 PM59 °FPartly sunny.6 mph63%29.92 "HgN/A
7:50 PM61 °FPartly sunny.6 mph59%29.92 "HgN/A
7:20 PM63 °FPartly sunny.10 mph52%29.92 "HgN/A
6:50 PM63 °FScattered clouds.12 mph52%29.92 "HgN/A
6:20 PM63 °FScattered clouds.14 mph52%29.92 "HgN/A
5:50 PM64 °FBroken clouds.14 mph49%29.92 "HgN/A
5:20 PM63 °FPartly sunny.12 mph52%29.92 "HgN/A
4:50 PM64 °FBroken clouds.15 mph49%29.92 "HgN/A
4:20 PM64 °FBroken clouds.16 mph49%29.92 "HgN/A
Weather by CustomWeather, © 2014

See weather overviewHow to use our weather pages